This is the latest recevied weather packets stored in our database for station/object KG5APU. If no packets are shown the sender has not sent any weather packets the latest 10 day(s).
| Time | Temp. | Humidity | Pressure | Rain* | Wind** | Luminosity | Snow |
|---|---|---|---|---|---|---|---|
| 1778010665 | 29.44° C | 69% | 1005.4 hPa | 0 mm | - | 809 W/m² | - |
| 1778010063 | 28.89° C | 68% | 1005.6 hPa | 0 mm | - | 275 W/m² | - |
| 1778009464 | 29.44° C | 68% | 1005.6 hPa | 0 mm | - | 837 W/m² | - |
| 1778008860 | 28.89° C | 70% | 1005.4 hPa | 0 mm | - | 921 W/m² | - |
| 1778008255 | 28.33° C | 69% | 1005.5 hPa | 0 mm | - | 561 W/m² | - |
| 1778007652 | 28.33° C | 69% | 1005.6 hPa | 0 mm | - | 751 W/m² | - |
| 1778007051 | 28.33° C | 70% | 1005.6 hPa | 0 mm | - | 429 W/m² | - |
| 1778006451 | 27.78° C | 71% | 1005.7 hPa | 0 mm | - | 394 W/m² | - |
| 1778005845 | 27.78° C | 72% | 1005.6 hPa | 0 mm | - | 366 W/m² | - |
| 1778005244 | 27.78° C | 70% | 1006 hPa | 0 mm | - | 355 W/m² | - |
| 1778004644 | 27.78° C | 70% | 1005.8 hPa | 0 mm | - | 440 W/m² | - |
| 1778004043 | 28.33° C | 70% | 1005.8 hPa | 0 mm | - | 476 W/m² | - |
| 1778003441 | 27.22° C | 73% | 1005.8 hPa | 0 mm | - | 498 W/m² | - |
| 1778002839 | 27.22° C | 72% | 1005.9 hPa | 0 mm | - | 464 W/m² | - |
| 1778002239 | 27.22° C | 72% | 1006 hPa | 0 mm | - | 586 W/m² | - |
| 1778001638 | 27.22° C | 73% | 1006 hPa | 0 mm | - | 744 W/m² | - |
| 1778001036 | 27.22° C | 73% | 1006.2 hPa | 0 mm | - | 454 W/m² | - |
| 1778000435 | 27.22° C | 71% | 1006.1 hPa | 0 mm | - | 657 W/m² | - |
| 1777999832 | 26.67° C | 73% | 1006.1 hPa | 0 mm | - | 505 W/m² | - |
| 1777999232 | 26.67° C | 74% | 1006.1 hPa | 0 mm | - | 422 W/m² | - |
| 1777998627 | 26.11° C | 76% | 1005.9 hPa | 0 mm | - | 470 W/m² | - |
| 1777998023 | 26.11° C | 76% | 1006 hPa | 0 mm | - | 580 W/m² | - |
| 1777997423 | 25.56° C | 76% | 1005.7 hPa | 0 mm | - | 544 W/m² | - |
| 1777996818 | 25.56° C | 77% | 1005.6 hPa | 0 mm | - | 524 W/m² | - |
| 1777996216 | 25° C | 79% | 1005.7 hPa | 0 mm | - | 423 W/m² | - |
* Rain latest hour (hover to see other rain measurements)
** Current wind speed in m/s (hover to see current wind gust speed)